Zurück zum Katalog

STARLINK-31581

AktivKommunikationVLEO
NORAD 59474·PAYLOAD·🇺🇸 United States

Gestartet Apr 10, 2024 von Cape Canaveral Space Force Station

Loading…

Nächste Überflüge (nächste 24 Stunden)

TLE

AktuellSource: CelesTrak SupGP

Epoche: Sep 14, 2026, 22:47 UTC

1 59474C 24068V   26257.94979167  .00024040  00000+0  87076-3 0  2570
2 59474  43.0038  38.5631 0001375 272.4324 305.2016 15.27565768    15

Verfolge STARLINK-31581 in Echtzeit mit AllMySat

Download on the App Store